TimeCST,TemperatureF,Dew PointF,Humidity,Sea Level PressureIn,VisibilityMPH,Wind Direction,Wind SpeedMPH,Gust SpeedMPH,PrecipitationIn,Events,Conditions,WindDirDegrees,DateUTC
12:15 AM,-0.4,-11.2,60,30.39,10.0,WNW,5.8,-,N/A,,Clear,300,2013-02-01 06:15:00
12:35 AM,-2.2,-11.2,66,30.39,10.0,WNW,6.9,-,N/A,,Clear,300,2013-02-01 06:35:00
1:15 AM,-0.4,-11.2,60,30.39,10.0,West,11.5,-,N/A,,Clear,280,2013-02-01 07:15:00
1:35 AM,-0.4,-11.2,60,30.39,10.0,NW,8.1,-,N/A,,Clear,310,2013-02-01 07:35:00
2:15 AM,-2.2,-11.2,66,30.38,10.0,NNW,9.2,-,N/A,,Clear,330,2013-02-01 08:15:00
2:35 AM,-2.2,-11.2,66,30.38,10.0,NW,5.8,-,N/A,,Clear,320,2013-02-01 08:35:00
2:55 AM,-2.2,-11.2,66,30.37,10.0,Calm,Calm,-,N/A,,Clear,0,2013-02-01 08:55:00
3:15 AM,-2.2,-11.2,66,30.36,10.0,Calm,Calm,-,N/A,,Clear,0,2013-02-01 09:15:00
3:35 AM,-2.2,-11.2,66,30.35,10.0,East,4.6,-,N/A,,Clear,100,2013-02-01 09:35:00
3:55 AM,-2.2,-11.2,66,30.34,10.0,East,4.6,-,N/A,,Clear,90,2013-02-01 09:55:00
4:15 AM,-2.2,-11.2,66,30.35,10.0,Calm,Calm,-,N/A,,Clear,0,2013-02-01 10:15:00
4:35 AM,-4.0,-11.2,71,30.35,10.0,Calm,Calm,-,N/A,,Clear,0,2013-02-01 10:35:00
4:55 AM,-2.2,-9.4,71,30.36,10.0,SW,4.6,-,N/A,,Mostly Cloudy,230,2013-02-01 10:55:00
5:15 AM,-2.2,-9.4,71,30.34,10.0,SSE,4.6,-,N/A,,Overcast,160,2013-02-01 11:15:00
5:35 AM,-2.2,-9.4,71,30.35,10.0,South,4.6,-,N/A,,Overcast,190,2013-02-01 11:35:00
5:55 AM,-0.4,-7.6,72,30.35,10.0,SSW,4.6,-,N/A,,Overcast,200,2013-02-01 11:55:00
6:15 AM,-0.4,-7.6,72,30.35,10.0,South,5.8,-,N/A,,Overcast,190,2013-02-01 12:15:00
6:35 AM,-0.4,-7.6,72,30.34,10.0,South,5.8,-,N/A,,Overcast,180,2013-02-01 12:35:00
6:55 AM,1.4,-7.6,66,30.34,10.0,South,5.8,-,N/A,,Overcast,180,2013-02-01 12:55:00
7:15 AM,1.4,-7.6,66,30.34,10.0,South,8.1,-,N/A,,Overcast,180,2013-02-01 13:15:00
7:35 AM,1.4,-7.6,66,30.33,10.0,South,8.1,-,N/A,,Overcast,170,2013-02-01 13:35:00
8:15 AM,1.4,-5.8,72,30.32,10.0,SSE,8.1,-,N/A,,Overcast,160,2013-02-01 14:15:00
8:35 AM,3.2,-5.8,66,30.33,10.0,SSE,9.2,-,N/A,,Overcast,160,2013-02-01 14:35:00
9:15 AM,3.2,-5.8,66,30.30,10.0,SSE,12.7,-,N/A,,Overcast,160,2013-02-01 15:15:00
9:35 AM,5.0,-4.0,66,30.29,10.0,SSE,13.8,-,N/A,,Overcast,160,2013-02-01 15:35:00
9:55 AM,5.0,-4.0,66,30.29,10.0,South,13.8,-,N/A,,Mostly Cloudy,180,2013-02-01 15:55:00
10:15 AM,6.8,-4.0,61,30.28,10.0,South,16.1,-,N/A,,Partly Cloudy,170,2013-02-01 16:15:00
10:35 AM,6.8,-2.2,67,30.27,10.0,SSE,16.1,-,N/A,,Mostly Cloudy,160,2013-02-01 16:35:00
10:55 AM,8.6,-2.2,62,30.26,10.0,South,15.0,-,N/A,,Scattered Clouds,170,2013-02-01 16:55:00
11:15 AM,8.6,-2.2,62,30.25,10.0,SSE,16.1,-,N/A,,Clear,160,2013-02-01 17:15:00
11:35 AM,10.4,-0.4,62,30.24,10.0,South,13.8,-,N/A,,Clear,170,2013-02-01 17:35:00
12:15 PM,10.4,-0.4,62,30.20,10.0,SSE,17.3,-,N/A,,Partly Cloudy,160,2013-02-01 18:15:00
12:35 PM,10.4,1.4,67,30.19,10.0,SSE,16.1,-,N/A,,Clear,160,2013-02-01 18:35:00
12:55 PM,12.2,3.2,67,30.17,10.0,South,16.1,-,N/A,,Scattered Clouds,170,2013-02-01 18:55:00
1:15 PM,15.8,5.0,62,30.14,10.0,South,18.4,-,N/A,,Mostly Cloudy,170,2013-02-01 19:15:00
1:35 PM,17.6,6.8,63,30.13,10.0,South,17.3,27.6,N/A,,Mostly Cloudy,190,2013-02-01 19:35:00
1:55 PM,19.4,8.6,63,30.13,10.0,South,16.1,-,N/A,,Scattered Clouds,190,2013-02-01 19:55:00
2:15 PM,19.4,8.6,63,30.12,10.0,South,12.7,20.7,N/A,,Scattered Clouds,190,2013-02-01 20:15:00
2:35 PM,21.2,10.4,63,30.11,10.0,South,15.0,20.7,N/A,,Partly Cloudy,190,2013-02-01 20:35:00
2:55 PM,23.0,12.2,63,30.10,10.0,South,15.0,20.7,N/A,,Partly Cloudy,190,2013-02-01 20:55:00
3:15 PM,23.0,14.0,68,30.09,10.0,South,15.0,25.3,N/A,,Partly Cloudy,190,2013-02-01 21:15:00
3:35 PM,24.8,14.0,64,30.09,10.0,SSW,16.1,21.9,N/A,,Scattered Clouds,200,2013-02-01 21:35:00
4:15 PM,24.8,14.0,64,30.08,10.0,SSW,16.1,24.2,N/A,,Mostly Cloudy,200,2013-02-01 22:15:00
4:35 PM,24.8,15.8,69,30.06,10.0,SSW,16.1,23.0,N/A,,Mostly Cloudy,200,2013-02-01 22:35:00
5:15 PM,24.8,15.8,69,30.04,10.0,SSW,15.0,25.3,N/A,,Mostly Cloudy,200,2013-02-01 23:15:00
5:35 PM,24.8,15.8,69,30.05,10.0,SSW,19.6,25.3,N/A,,Mostly Cloudy,210,2013-02-01 23:35:00
5:55 PM,24.8,15.8,69,30.05,10.0,South,15.0,20.7,N/A,,Overcast,190,2013-02-01 23:55:00
6:15 PM,24.8,15.8,69,30.06,10.0,SSW,16.1,-,N/A,,Overcast,200,2013-02-02 00:15:00
6:35 PM,24.8,15.8,69,30.06,10.0,SSW,15.0,-,N/A,,Overcast,200,2013-02-02 00:35:00
6:55 PM,24.8,15.8,69,30.06,10.0,SSW,15.0,21.9,N/A,,Overcast,200,2013-02-02 00:55:00
7:15 PM,24.8,15.8,69,30.05,10.0,SSW,16.1,21.9,N/A,,Overcast,200,2013-02-02 01:15:00
7:35 PM,24.8,15.8,69,30.05,10.0,SSW,16.1,-,N/A,,Overcast,200,2013-02-02 01:35:00
7:55 PM,24.8,15.8,69,30.05,10.0,SSW,16.1,21.9,N/A,,Overcast,200,2013-02-02 01:55:00
8:15 PM,24.8,15.8,69,30.04,10.0,SSW,15.0,21.9,N/A,,Overcast,200,2013-02-02 02:15:00
8:35 PM,24.8,15.8,69,30.04,10.0,SSW,16.1,23.0,N/A,,Overcast,210,2013-02-02 02:35:00
8:55 PM,24.8,15.8,69,30.04,10.0,SSW,16.1,23.0,N/A,,Overcast,210,2013-02-02 02:55:00
9:15 PM,24.8,15.8,69,30.04,10.0,SSW,16.1,-,N/A,,Overcast,210,2013-02-02 03:15:00
9:35 PM,24.8,15.8,69,30.05,10.0,SSW,13.8,21.9,N/A,,Overcast,210,2013-02-02 03:35:00
9:55 PM,24.8,15.8,69,30.05,10.0,SSW,16.1,-,N/A,,Mostly Cloudy,210,2013-02-02 03:55:00
10:15 PM,24.8,15.8,69,30.05,10.0,SW,11.5,-,N/A,,Mostly Cloudy,220,2013-02-02 04:15:00
10:35 PM,24.8,15.8,69,30.05,10.0,SW,13.8,20.7,N/A,,Overcast,230,2013-02-02 04:35:00
10:55 PM,24.8,17.6,74,30.05,10.0,SW,15.0,-,N/A,,Overcast,230,2013-02-02 04:55:00
11:15 PM,26.6,17.6,69,30.04,10.0,SW,12.7,-,N/A,,Overcast,230,2013-02-02 05:15:00
11:35 PM,26.6,17.6,69,30.04,10.0,WSW,12.7,-,N/A,,Overcast,240,2013-02-02 05:35:00
11:55 PM,26.6,17.6,69,30.04,10.0,WSW,11.5,-,N/A,,Overcast,250,2013-02-02 05:55:00